Theta_e
328 330 330 334 330 328 336 333 331 335 336 335 335 336 333 334 335 337 327 333 333 326 313 330 324 326 333 335 335 329 327 335 336 333 325 311 308 309 309 309 310 311 310 311 311 312 313 313 313
327 329 330 332 330 333 333 331 334 334 336 336 335 334 333 330 328 328 330 331 332 320 314 329 320 324 334 335 335 331 334 336 336 331 323 309 309 309 310 310 311 311 313 316 318 319 320 320 319
327 327 329 326 327 332 332 333 333 334 337 335 336 335 332 329 327 326 325 330 331 318 321 324 316 323 330 335 334 334 336 336 334 329 317 309 310 311 311 312 313 316 319 319 317 315 313 312 313
328 327 326 328 332 330 331 332 334 333 335 336 335 333 330 331 324 325 327 328 331 319 324 328 321 323 324 333 336 336 336 334 331 320 309 308 311 312 314 315 316 316 315 312 311 311 312 314 312
327 327 326 328 330 330 330 335 335 335 335 335 335 334 333 332 331 326 329 329 329 323 331 329 326 323 323 323 324 328 328 323 315 308 308 310 312 314 315 315 314 313 312 313 314 316 317 317 317
327 324 327 330 331 329 329 334 334 335 335 335 335 335 335 334 332 328 328 327 323 323 331 330 327 323 323 322 320 318 314 309 308 308 309 312 315 316 314 312 313 314 315 317 318 318 318 318 318
325 324 326 326 330 332 331 334 335 334 335 334 334 332 332 331 332 329 328 325 318 320 329 330 326 323 321 316 312 310 309 308 308 309 311 317 317 313 312 313 315 316 317 317 318 318 321 323 324
326 323 327 325 330 332 329 331 334 335 333 335 334 331 332 332 330 330 328 320 317 324 329 328 324 317 315 313 311 309 309 309 310 314 319 316 312 312 314 316 317 317 317 318 321 325 326 326 326
326 325 327 327 329 330 329 329 335 335 336 335 336 334 333 332 330 329 326 325 324 327 329 329 326 323 318 312 310 310 310 311 317 320 315 311 312 314 315 316 317 318 321 323 325 326 326 326 325
325 323 326 324 325 327 328 329 332 334 334 333 335 334 332 330 329 329 327 327 328 325 330 329 327 323 315 311 311 312 316 320 320 316 312 312 314 316 317 318 321 323 324 327 327 326 327 327 327
325 325 325 324 323 324 326 326 332 333 332 333 335 334 331 330 328 328 328 326 327 326 327 328 323 318 314 311 313 317 321 320 317 315 313 314 316 317 319 322 324 325 326 326 327 327 327 326 327
325 325 326 325 323 323 324 326 326 332 332 331 333 333 332 330 328 329 328 326 326 322 321 322 322 319 315 312 315 321 322 320 316 314 314 315 317 319 322 326 325 327 326 327 327 327 327 327 325
325 325 326 326 323 323 323 323 325 330 331 334 332 332 331 330 329 329 328 326 325 326 325 323 324 321 318 314 318 322 322 319 317 316 316 317 321 323 325 326 326 326 326 326 327 327 326 320 311
326 325 325 325 323 323 323 324 327 331 331 334 331 332 331 330 329 328 327 326 326 326 327 327 325 324 322 319 323 325 323 320 320 319 319 320 323 325 324 327 326 326 326 327 327 325 322 311 310
326 326 326 325 325 322 324 325 324 331 333 332 332 332 331 330 328 328 327 325 325 327 328 329 327 328 324 326 326 325 328 325 326 324 325 328 328 326 326 326 325 325 325 326 325 322 311 309 309
327 327 329 326 325 324 323 325 322 332 333 331 331 331 331 330 328 327 327 325 325 326 328 327 328 328 327 327 327 327 328 327 327 325 324 325 324 325 325 325 325 325 325 326 320 311 309 309 307
328 332 329 328 325 325 323 324 322 333 333 332 331 330 331 331 329 327 327 326 328 327 328 327 328 328 327 328 328 328 328 327 325 326 324 325 324 324 324 324 323 323 325 322 315 311 308 307 308
321 330 329 328 326 325 324 323 322 333 333 333 332 330 330 330 329 328 328 329 330 330 330 331 329 329 329 328 328 327 327 326 325 323 324 324 324 324 324 323 323 323 319 313 308 306 306 308 310
316 313 314 327 325 327 326 326 323 325 332 332 331 330 329 329 329 328 329 330 330 331 331 331 331 330 329 328 327 328 326 326 325 325 324 324 325 324 324 323 320 312 308 306 305 307 309 309 309
319 316 315 324 325 327 327 326 325 321 327 330 332 331 329 329 329 330 329 330 330 331 331 331 330 330 329 328 328 326 325 326 326 325 326 326 324 324 320 315 311 306 304 307 309 310 310 308 306
315 315 315 316 326 325 327 329 327 324 323 323 331 332 330 329 330 330 329 330 331 331 331 332 329 330 331 331 329 326 326 326 326 326 324 321 316 308 309 303 305 308 310 310 310 310 306 298 297
317 315 314 320 326 331 327 331 329 326 324 322 327 332 331 330 330 331 330 331 331 332 332 332 333 332 332 331 330 327 326 326 324 320 315 311 305 303 308 310 310 311 311 312 311 306 298 296 295
316 313 313 315 325 328 328 330 329 327 327 322 329 330 327 330 330 331 331 331 331 332 333 333 333 332 331 330 330 329 328 324 318 311 304 306 310 311 310 310 311 311 310 305 296 296 295 295 294
311 313 314 320 326 330 327 330 328 328 327 323 325 321 322 324 327 329 328 329 329 332 331 331 332 331 330 329 327 324 319 308 304 305 306 309 310 311 311 310 308 303 298 296 295 294 293 293 291
312 313 320 322 323 326 326 328 327 324 324 323 322 318 318 319 323 325 325 324 324 329 328 328 326 327 325 322 321 317 312 311 310 310 311 311 311 310 306 300 296 295 294 294 293 292 291 290 290
313 314 318 320 325 324 325 327 326 316 317 319 321 316 316 315 317 319 320 322 321 324 324 323 321 322 317 315 313 311 312 311 311 311 311 307 305 301 296 294 294 294 293 292 291 290 290 289 288
312 316 312 315 316 323 322 318 314 314 312 314 309 309 308 312 313 314 316 320 319 318 318 318 316 315 313 312 312 311 311 311 311 308 306 299 295 294 294 294 293 292 291 290 290 289 289 288 287
314 314 317 316 320 323 322 322 324 315 313 309 308 306 305 308 310 311 312 315 317 314 314 313 313 312 312 311 312 312 309 309 307 305 297 294 294 294 294 293 292 291 290 289 289 288 287 287 286
313 316 316 316 316 320 323 323 307 315 312 309 306 304 304 306 309 308 310 310 308 310 311 311 311 311 311 311 311 310 306 303 299 295 294 294 294 294 292 291 291 290 289 288 287 287 286 286 285
311 315 316 317 318 316 317 319 305 310 312 309 306 304 305 306 307 307 306 306 308 310 310 310 310 311 311 310 307 304 297 295 294 293 294 294 294 293 291 291 290 289 288 287 286 286 285 285 284
Wind_Speed
8 4 3 2 3 4 2 1 4 3 3 3 6 3 7 5 2 3 19 18 21 18 18 17 14 12 7 7 15 14 12 15 13 9 8 9 10 11 12 12 13 13 13 13 14 14 13 13 11
8 5 2 2 4 2 4 3 3 1 13 17 14 9 5 2 3 15 23 18 21 19 20 17 15 13 9 12 17 16 15 17 12 6 7 7 9 11 12 12 13 13 13 14 13 13 13 12 11
7 3 2 4 3 4 4 3 1 6 20 1 6 9 5 5 10 29 19 23 22 20 19 17 15 14 12 14 15 15 18 15 9 4 6 6 9 12 12 12 12 12 12 11 11 12 11 10 9
4 1 2 3 4 5 5 5 6 7 3 1 13 7 7 6 22 15 21 21 22 20 19 17 16 14 13 14 16 16 15 10 4 1 4 7 8 9 10 10 10 10 11 12 13 14 14 14 13
1 2 2 1 4 3 3 4 11 3 2 6 1 5 9 13 9 17 21 20 22 20 20 18 15 14 13 12 12 11 9 6 3 3 6 7 8 8 9 9 10 11 13 13 14 15 15 16 16
1 2 2 3 4 3 2 8 10 6 4 6 8 8 4 10 13 20 18 17 19 22 21 18 15 14 13 12 11 9 8 6 5 7 8 8 8 8 8 10 12 13 13 14 13 13 13 13 13
1 3 4 3 4 2 4 8 6 9 7 4 16 4 7 20 16 19 17 15 21 22 22 19 16 14 13 11 10 9 8 7 8 8 9 9 8 9 11 12 12 12 12 11 11 11 11 12 12
4 2 2 5 5 6 4 5 10 14 3 15 14 8 8 26 25 22 16 18 22 22 21 19 16 14 12 11 10 9 9 10 10 10 9 9 9 11 12 11 10 9 9 9 9 9 10 11 9
5 1 4 5 7 5 8 4 8 11 16 10 11 9 7 31 30 26 23 21 21 22 21 19 17 14 11 11 11 12 12 12 11 10 9 10 11 11 10 9 7 7 7 7 7 6 7 8 9
7 3 7 5 4 5 10 10 16 8 13 8 9 13 22 35 34 32 30 28 24 24 24 19 17 14 13 12 13 13 13 12 11 9 9 10 10 9 8 6 5 5 5 6 5 7 9 11 12
4 5 5 5 5 8 10 8 13 12 5 13 23 26 36 38 37 32 29 27 26 24 25 21 17 15 13 14 14 14 13 11 9 9 9 9 9 7 5 4 3 3 4 7 9 10 12 15 18
7 10 17 9 5 4 6 10 8 16 6 14 22 28 40 41 40 36 30 25 23 25 24 20 16 17 14 15 14 13 11 10 9 9 9 8 7 6 4 1 1 5 6 10 12 13 16 19 20
12 11 10 19 13 6 6 9 8 13 8 14 24 34 42 41 40 34 26 23 22 24 23 21 16 18 14 15 15 13 11 9 9 8 8 7 6 5 3 1 2 4 8 9 13 14 17 19 16
10 24 22 14 14 7 5 5 10 8 15 21 29 36 41 40 40 35 29 26 24 22 22 20 17 17 15 15 14 12 10 9 8 7 8 9 7 6 5 3 4 7 9 11 13 14 16 15 12
14 7 15 24 13 6 8 5 6 13 20 28 31 37 40 39 37 35 29 26 24 23 22 20 18 15 15 14 12 10 9 9 10 9 9 7 6 5 5 6 8 10 11 13 13 15 14 11 9
18 5 10 18 22 12 8 7 5 21 27 23 30 36 39 39 36 34 29 25 24 24 24 21 20 16 16 14 13 15 14 12 10 10 9 9 9 8 9 9 11 13 15 14 14 12 10 10 9
12 14 25 15 22 7 9 5 6 26 27 20 25 33 38 39 35 35 29 26 24 24 23 22 21 19 18 18 18 17 16 15 13 13 11 11 10 10 11 12 13 16 16 14 13 12 11 9 9
6 21 13 21 25 17 9 6 4 27 27 26 29 31 35 40 38 34 30 26 23 22 21 20 21 21 22 22 20 18 18 16 16 14 15 13 14 14 15 16 16 16 13 11 9 7 9 12 12
6 4 14 18 15 14 16 14 9 17 19 17 22 27 31 33 35 30 28 26 24 23 23 22 22 23 24 23 21 20 19 18 18 16 16 17 17 16 15 15 13 8 8 8 7 8 10 12 12
21 7 12 16 13 17 15 14 15 8 15 20 27 25 27 30 34 31 31 33 31 28 27 24 26 28 24 22 21 20 20 20 19 19 19 17 16 16 13 10 8 6 3 7 8 11 15 16 16
6 9 11 13 9 10 14 14 5 4 5 14 23 30 29 38 37 34 33 34 33 30 27 27 27 30 29 26 23 23 23 22 21 21 18 15 13 9 9 5 1 2 5 10 14 17 17 15 13
6 3 5 15 16 14 17 10 18 13 8 4 15 25 29 37 37 35 34 33 33 32 30 30 30 29 29 27 28 28 27 28 25 20 18 13 8 6 4 5 6 8 15 18 21 18 15 13 11
4 2 8 16 15 9 16 10 8 24 18 7 11 22 32 38 39 37 35 33 32 30 31 31 30 31 30 30 31 32 31 29 25 17 11 12 10 7 8 11 14 16 19 16 12 13 14 14 13
2 6 17 8 9 12 9 14 12 21 30 12 11 21 29 35 37 35 34 33 31 30 28 26 27 29 30 28 29 26 24 18 19 15 10 5 6 8 10 14 12 9 9 10 10 11 11 11 11
3 5 4 3 3 2 18 11 2 13 23 22 19 24 29 32 35 35 35 32 29 25 19 20 20 21 19 18 18 17 14 16 11 9 5 2 4 2 4 4 6 7 8 9 9 10 10 11 12
4 4 1 3 2 3 10 7 3 3 7 9 27 30 31 31 33 33 32 30 26 27 26 22 20 18 16 17 17 18 16 11 8 5 3 2 1 2 3 4 6 7 8 9 9 10 10 10 11
4 3 6 2 3 2 4 2 1 5 8 16 21 26 27 34 31 29 27 26 22 22 22 21 21 22 21 18 15 13 11 8 7 6 6 2 1 2 3 4 6 7 7 8 8 10 10 11 11
3 6 3 1 4 3 1 2 2 5 7 10 13 17 22 26 26 25 25 25 26 26 25 26 23 19 17 14 12 12 12 12 9 5 4 3 1 2 3 4 5 7 7 8 9 9 10 10 11
2 3 3 3 1 3 2 2 4 4 10 11 11 15 23 26 25 25 24 26 30 29 29 26 21 17 14 11 13 15 12 9 8 6 4 1 1 3 4 5 6 6 7 7 8 9 10 11 12
1 3 1 3 3 2 1 2 5 4 10 15 15 17 22 23 25 26 28 31 33 32 26 22 19 16 13 14 16 13 11 10 8 6 3 0 2 3 3 5 6 7 7 8 9 10 11 12 13
Wind_Direction
324 281 273 194 64 64 247 163 280 180 100 303 145 129 135 62 135 180 144 156 161 154 152 151 155 150 139 157 167 160 151 151 139 108 60 45 64 82 88 87 85 82 76 71 68 66 64 63 62
337 294 249 128 100 107 252 268 203 223 129 115 95 94 57 83 114 144 148 154 162 159 156 156 157 150 122 125 147 151 149 149 138 109 56 55 78 94 90 85 80 76 73 70 68 65 63 62 61
340 297 298 109 121 183 202 211 199 96 155 354 108 86 95 119 141 148 152 152 165 162 160 156 157 153 134 126 138 144 148 146 132 59 40 66 81 86 87 79 78 76 75 71 65 62 60 59 56
339 169 26 103 214 251 197 188 125 123 170 181 124 78 103 105 145 153 151 157 168 166 164 159 160 159 149 133 134 142 146 149 142 32 53 93 92 88 89 84 82 77 71 69 68 67 65 59 55
339 109 55 295 251 262 220 215 144 106 86 139 153 137 129 157 172 164 158 160 173 171 168 164 163 167 164 159 157 161 169 186 198 152 124 113 105 98 92 90 87 85 84 80 77 74 68 63 61
322 105 92 233 243 256 223 215 154 139 135 150 113 107 139 174 173 165 166 169 180 180 173 171 168 170 174 173 174 180 186 187 172 145 133 120 112 106 102 97 93 90 85 79 74 68 59 51 48
101 107 204 210 242 262 218 182 176 127 140 222 147 99 152 169 178 167 166 174 179 180 176 175 172 173 177 179 183 186 180 170 157 148 139 133 127 118 108 101 97 91 82 74 67 58 48 41 38
278 131 222 221 198 239 202 181 166 140 137 154 163 165 174 181 175 165 165 169 178 180 180 178 176 176 179 182 181 179 171 164 157 150 146 137 131 121 114 110 105 97 80 65 57 48 39 34 27
264 356 223 231 160 217 182 160 164 145 145 190 198 185 221 170 169 168 168 171 174 183 185 183 184 185 187 182 174 167 164 162 158 155 143 137 133 129 125 120 108 98 73 59 49 33 19 10 0
192 203 225 222 213 190 192 175 162 156 160 206 183 173 170 171 175 177 177 176 182 186 186 189 190 194 190 180 171 166 163 160 159 155 149 147 146 142 132 116 93 78 58 34 7 357 347 342 339
210 213 265 267 237 228 196 185 175 152 217 200 184 172 174 175 179 185 186 186 184 186 185 190 193 191 186 179 175 169 165 163 160 159 157 159 158 153 142 126 94 38 13 354 338 333 331 333 328
223 241 252 294 238 216 186 174 188 184 195 210 194 184 178 181 184 188 189 187 183 181 184 183 186 186 178 180 177 174 170 171 170 164 166 172 169 164 158 140 24 354 339 328 325 322 326 327 322
228 215 268 257 258 233 201 193 194 192 202 178 177 178 181 185 187 189 192 188 184 181 182 184 183 182 178 176 179 179 173 169 167 169 173 173 180 186 196 246 310 317 320 316 309 313 321 324 328
196 231 236 271 262 250 201 215 174 183 174 172 177 182 186 188 190 187 189 189 192 187 184 183 182 180 183 180 179 174 169 174 175 177 180 193 201 208 233 257 284 288 297 301 307 314 318 324 330
229 211 224 244 259 272 193 247 209 181 167 171 180 185 189 191 191 192 189 192 192 191 191 196 189 184 182 178 176 186 184 182 191 195 197 201 202 213 238 265 278 287 289 293 305 310 313 320 327
213 202 211 211 228 249 200 224 223 176 171 176 183 187 194 193 194 195 193 196 195 195 199 201 196 193 186 175 190 194 199 205 199 197 202 210 224 246 264 274 287 288 291 301 308 309 309 313 319
208 209 217 212 213 223 204 211 183 181 177 180 187 193 197 194 194 196 196 197 194 195 194 199 201 199 190 193 199 204 202 201 200 207 218 228 241 257 271 281 292 293 288 292 291 294 293 290 298
323 216 213 214 210 222 220 231 178 181 178 188 194 197 197 197 196 195 197 199 201 200 201 197 201 197 194 201 203 206 208 214 212 222 227 237 248 260 275 282 286 284 277 272 270 276 292 303 314
220 273 324 207 203 197 226 209 221 188 191 182 192 197 197 196 196 195 198 200 203 205 205 206 206 202 204 208 210 215 221 219 223 228 241 245 253 263 263 269 271 273 268 265 284 309 312 311 322
215 267 292 276 190 178 213 217 223 156 206 194 188 196 186 186 196 196 198 202 205 204 204 207 207 203 207 214 218 218 221 226 230 235 239 241 245 247 242 243 236 234 289 321 328 336 339 338 340
218 229 262 258 225 187 184 229 230 222 238 209 207 196 188 187 189 191 195 199 203 204 201 204 200 202 207 215 214 216 224 228 227 229 223 217 214 197 201 181 119 36 354 343 344 340 339 345 353
165 75 316 266 228 201 185 218 224 206 191 218 188 182 177 188 188 184 190 195 199 201 204 204 209 203 205 213 220 222 226 224 220 209 203 190 163 124 91 88 13 6 335 329 323 325 337 345 354
176 78 313 271 241 191 193 218 186 218 217 193 165 169 177 188 185 183 185 191 194 202 204 204 205 208 209 218 219 221 222 213 200 184 125 115 111 81 353 325 305 299 306 320 340 346 345 348 354
61 18 295 211 243 215 186 195 198 191 213 191 160 164 170 180 182 178 177 178 180 185 192 195 203 206 207 212 209 201 195 156 138 129 146 175 228 261 281 299 313 334 341 346 344 348 348 349 354
108 75 289 194 216 243 170 199 162 191 202 194 168 161 167 177 179 175 174 173 171 176 185 189 188 189 188 197 193 184 150 123 139 144 153 214 274 319 21 353 341 343 348 349 353 353 354 356 355
118 127 262 312 277 128 166 197 188 62 331 165 166 162 170 177 176 176 176 173 174 177 183 186 185 182 159 152 137 135 137 147 159 180 122 163 202 330 339 348 349 346 350 351 353 353 354 357 354
129 155 150 310 222 237 149 176 217 88 65 110 134 147 156 173 177 175 173 174 174 174 172 171 164 152 141 138 139 151 149 160 160 160 151 185 68 23 359 349 347 350 351 352 355 354 349 349 349
163 159 126 103 323 356 33 142 86 173 146 129 138 141 155 169 169 172 168 171 177 168 159 155 151 149 152 153 154 155 152 155 158 147 155 185 97 14 354 348 350 351 348 350 347 344 343 344 345
315 147 99 116 259 309 15 35 326 170 155 148 146 149 158 164 163 164 163 164 164 158 155 156 157 161 164 164 166 168 160 157 153 157 168 145 9 359 359 343 340 339 335 337 339 341 340 342 343
25 36 196 156 230 323 80 343 322 84 144 145 149 161 167 168 166 166 165 162 162 158 163 165 169 173 175 166 162 160 159 154 161 157 157 111 352 345 335 331 328 328 330 334 334 336 338 340 340